Time,TemperatureF,DewpointF,PressureIn,WindDirection,WindDirectionDegrees,WindSpeedMPH,WindSpeedGustMPH,Humidity,HourlyPrecipIn,Conditions,Clouds,dailyrainin,SolarRadiationWatts/m^2,SoftwareType,DateUTC
2013-07-09 00:01:00,71.0,39.0,29.92,West,272,0.0,-999.0,31,-99.99,,,-99.99,0.000000,,2013-07-09 06:01:00,
2013-07-09 00:11:00,71.0,39.0,29.92,West,272,0.0,-999.0,31,-99.99,,,-99.99,0.000000,,2013-07-09 06:11:00,
2013-07-09 00:22:00,71.0,39.0,29.93,NNE,19,0.0,-999.0,31,-99.99,,,-99.99,0.000000,,2013-07-09 06:22:00,
2013-07-09 00:33:00,70.0,37.0,29.93,NW,319,0.0,-999.0,30,-99.99,,,-99.99,0.000000,,2013-07-09 06:33:00,
2013-07-09 00:43:00,70.0,37.0,29.93,NW,319,0.0,-999.0,30,-99.99,,,-99.99,0.000000,,2013-07-09 06:43:00,
2013-07-09 00:53:00,70.0,37.0,29.93,NW,319,0.0,-999.0,30,-99.99,,,-99.99,0.000000,,2013-07-09 06:53:00,
2013-07-09 01:02:00,69.0,39.0,29.94,South,180,0.0,-999.0,34,-99.99,,,-99.99,0.000000,,2013-07-09 07:02:00,
2013-07-09 01:11:00,69.0,39.0,29.94,South,180,0.0,-999.0,34,-99.99,,,-99.99,0.000000,,2013-07-09 07:11:00,
2013-07-09 01:22:00,67.0,40.0,29.94,SE,146,0.0,-999.0,37,-99.99,,,-99.99,0.000000,,2013-07-09 07:22:00,
2013-07-09 01:33:00,68.0,39.0,29.93,SW,217,1.0,-999.0,35,-99.99,,,-99.99,0.000000,,2013-07-09 07:33:00,
2013-07-09 01:43:00,68.0,39.0,29.93,SW,217,1.0,-999.0,35,-99.99,,,-99.99,0.000000,,2013-07-09 07:43:00,
2013-07-09 01:53:00,67.0,38.0,29.93,SW,218,0.0,-999.0,34,-99.99,,,-99.99,0.000000,,2013-07-09 07:53:00,
2013-07-09 02:01:00,67.0,38.0,29.94,SW,218,0.0,-999.0,34,-99.99,,,-99.99,0.000000,,2013-07-09 08:01:00,
2013-07-09 02:11:00,67.0,38.0,29.94,SW,218,0.0,-999.0,34,-99.99,,,-99.99,0.000000,,2013-07-09 08:11:00,
2013-07-09 02:22:00,68.0,38.0,29.94,SW,219,0.0,-999.0,33,-99.99,,,-99.99,0.000000,,2013-07-09 08:22:00,
2013-07-09 02:33:00,68.0,38.0,29.94,SW,220,0.0,-999.0,33,-99.99,,,-99.99,0.000000,,2013-07-09 08:33:00,
2013-07-09 02:43:00,68.0,38.0,29.94,SW,220,0.0,-999.0,33,-99.99,,,-99.99,0.000000,,2013-07-09 08:43:00,
2013-07-09 02:52:00,67.0,38.0,29.94,SW,233,0.0,-999.0,34,-99.99,,,-99.99,0.000000,,2013-07-09 08:52:00,
2013-07-09 03:02:00,66.0,38.0,29.95,NNW,338,0.0,-999.0,35,-99.99,,,-99.99,0.000000,,2013-07-09 09:02:00,
2013-07-09 03:12:00,66.0,38.0,29.95,NNW,338,0.0,-999.0,35,-99.99,,,-99.99,0.000000,,2013-07-09 09:12:00,
2013-07-09 03:22:00,64.0,38.0,29.95,South,178,0.0,-999.0,38,-99.99,,,-99.99,0.000000,,2013-07-09 09:22:00,
2013-07-09 03:34:00,64.0,38.0,29.95,South,178,0.0,-999.0,38,-99.99,,,-99.99,0.000000,,2013-07-09 09:34:00,
2013-07-09 03:42:00,64.0,38.0,29.95,South,178,0.0,-999.0,38,-99.99,,,-99.99,0.000000,,2013-07-09 09:42:00,
2013-07-09 03:53:00,62.0,38.0,29.95,SW,232,1.0,-999.0,41,-99.99,,,-99.99,0.000000,,2013-07-09 09:53:00,
2013-07-09 04:01:00,62.0,40.0,29.96,West,271,0.0,-999.0,44,-99.99,,,-99.99,0.000000,,2013-07-09 10:01:00,
2013-07-09 04:11:00,62.0,40.0,29.96,West,271,0.0,-999.0,44,-99.99,,,-99.99,0.000000,,2013-07-09 10:11:00,
2013-07-09 04:22:00,59.0,39.0,29.96,NNE,30,4.0,-999.0,48,-99.99,,,-99.99,0.000000,,2013-07-09 10:22:00,
2013-07-09 04:33:00,59.0,39.0,29.96,NNE,30,4.0,-999.0,48,-99.99,,,-99.99,0.000000,,2013-07-09 10:33:00,
2013-07-09 04:42:00,59.0,39.0,29.96,NNE,30,4.0,-999.0,48,-99.99,,,-99.99,0.000000,,2013-07-09 10:42:00,
2013-07-09 04:52:00,57.0,41.0,29.96,NE,35,6.0,-999.0,55,-99.99,,,-99.99,0.000000,,2013-07-09 10:52:00,
2013-07-09 05:01:00,57.0,41.0,29.96,NE,49,0.0,-999.0,56,-99.99,,,-99.99,0.000000,,2013-07-09 11:01:00,
2013-07-09 05:11:00,57.0,41.0,29.96,NE,49,0.0,-999.0,56,-99.99,,,-99.99,0.000000,,2013-07-09 11:11:00,
2013-07-09 05:22:00,58.0,41.0,29.96,NNE,14,0.0,-999.0,54,-99.99,,,-99.99,0.000000,,2013-07-09 11:22:00,
2013-07-09 05:33:00,58.0,42.0,29.97,NW,306,0.0,-999.0,55,-99.99,,,-99.99,0.000000,,2013-07-09 11:33:00,
2013-07-09 05:42:00,58.0,42.0,29.97,NW,306,0.0,-999.0,55,-99.99,,,-99.99,0.000000,,2013-07-09 11:42:00,
2013-07-09 05:53:00,56.0,41.0,29.97,NNE,13,1.0,-999.0,56,-99.99,,,-99.99,0.000000,,2013-07-09 11:53:00,
2013-07-09 06:02:00,54.0,42.0,29.98,North,5,2.0,-999.0,64,-99.99,,,-99.99,5.000000,,2013-07-09 12:02:00,
2013-07-09 06:11:00,54.0,42.0,29.98,North,5,2.0,-999.0,64,-99.99,,,-99.99,5.000000,,2013-07-09 12:11:00,
2013-07-09 06:22:00,53.0,43.0,29.98,North,349,2.0,-999.0,69,-99.99,,,-99.99,14.000000,,2013-07-09 12:22:00,
2013-07-09 06:33:00,53.0,44.0,29.98,NE,40,5.0,-999.0,71,-99.99,,,-99.99,26.000000,,2013-07-09 12:33:00,
2013-07-09 06:43:00,53.0,44.0,29.98,NE,40,5.0,-999.0,71,-99.99,,,-99.99,26.000000,,2013-07-09 12:43:00,
2013-07-09 06:52:00,54.0,44.0,29.99,NW,323,1.0,-999.0,70,-99.99,,,-99.99,54.000000,,2013-07-09 12:52:00,
2013-07-09 07:01:00,55.0,44.0,30.00,NNW,338,1.0,-999.0,66,-99.99,,,-99.99,97.000000,,2013-07-09 13:01:00,
2013-07-09 07:11:00,55.0,44.0,30.00,NNW,338,1.0,-999.0,66,-99.99,,,-99.99,97.000000,,2013-07-09 13:11:00,
2013-07-09 07:22:00,57.0,45.0,30.00,NNE,29,1.0,-999.0,63,-99.99,,,-99.99,146.000000,,2013-07-09 13:22:00,
2013-07-09 07:33:00,59.0,45.0,30.01,NE,44,1.0,-999.0,60,-99.99,,,-99.99,195.000000,,2013-07-09 13:33:00,
2013-07-09 07:43:00,59.0,45.0,30.01,NE,44,1.0,-999.0,60,-99.99,,,-99.99,195.000000,,2013-07-09 13:43:00,
2013-07-09 07:53:00,61.0,47.0,30.01,NNW,342,4.0,-999.0,60,-99.99,,,-99.99,239.000000,,2013-07-09 13:53:00,
2013-07-09 08:01:00,62.0,48.0,30.01,NNE,13,4.0,-999.0,60,-99.99,,,-99.99,288.000000,,2013-07-09 14:01:00,
2013-07-09 08:11:00,62.0,48.0,30.01,NNE,13,4.0,-999.0,60,-99.99,,,-99.99,288.000000,,2013-07-09 14:11:00,
2013-07-09 08:22:00,64.0,48.0,30.01,NNE,21,6.0,-999.0,56,-99.99,,,-99.99,338.000000,,2013-07-09 14:22:00,
2013-07-09 08:34:00,66.0,48.0,30.02,NNE,29,7.0,-999.0,53,-99.99,,,-99.99,381.000000,,2013-07-09 14:34:00,
2013-07-09 08:43:00,66.0,48.0,30.02,NNE,29,7.0,-999.0,53,-99.99,,,-99.99,381.000000,,2013-07-09 14:43:00,
2013-07-09 08:53:00,68.0,48.0,30.02,NE,37,6.0,-999.0,49,-99.99,,,-99.99,431.000000,,2013-07-09 14:53:00,
2013-07-09 09:01:00,69.0,48.0,30.02,NNW,340,5.0,-999.0,48,-99.99,,,-99.99,478.000000,,2013-07-09 15:01:00,
2013-07-09 09:12:00,69.0,48.0,30.02,NNW,340,5.0,-999.0,48,-99.99,,,-99.99,478.000000,,2013-07-09 15:12:00,
2013-07-09 09:22:00,71.0,47.0,30.01,NNE,31,4.0,-999.0,43,-99.99,,,-99.99,522.000000,,2013-07-09 15:22:00,
2013-07-09 09:33:00,72.0,47.0,30.02,North,11,5.0,-999.0,41,-99.99,,,-99.99,568.000000,,2013-07-09 15:33:00,
2013-07-09 09:43:00,72.0,47.0,30.02,North,11,5.0,-999.0,41,-99.99,,,-99.99,568.000000,,2013-07-09 15:43:00,
2013-07-09 09:52:00,73.0,47.0,30.01,NE,44,6.0,-999.0,39,-99.99,,,-99.99,612.000000,,2013-07-09 15:52:00,
2013-07-09 10:02:00,74.0,47.0,30.01,NE,47,3.0,-999.0,39,-99.99,,,-99.99,650.000000,,2013-07-09 16:02:00,
2013-07-09 10:11:00,74.0,47.0,30.01,NE,47,3.0,-999.0,39,-99.99,,,-99.99,650.000000,,2013-07-09 16:11:00,
2013-07-09 10:22:00,75.0,47.0,30.01,NE,46,5.0,-999.0,37,-99.99,,,-99.99,691.000000,,2013-07-09 16:22:00,
2013-07-09 10:34:00,75.0,48.0,30.02,ENE,57,4.0,-999.0,38,-99.99,,,-99.99,726.000000,,2013-07-09 16:34:00,
2013-07-09 10:43:00,75.0,48.0,30.02,ENE,57,4.0,-999.0,38,-99.99,,,-99.99,726.000000,,2013-07-09 16:43:00,
2013-07-09 10:53:00,76.0,48.0,30.02,NE,48,4.0,-999.0,37,-99.99,,,-99.99,759.000000,,2013-07-09 16:53:00,
2013-07-09 11:02:00,76.0,48.0,30.02,NE,48,4.0,-999.0,37,-99.99,,,-99.99,759.000000,,2013-07-09 17:02:00,
2013-07-09 11:11:00,77.0,47.0,30.02,ENE,59,5.0,-999.0,35,-99.99,,,-99.99,793.000000,,2013-07-09 17:11:00,
2013-07-09 11:22:00,78.0,47.0,30.02,NNE,29,4.0,-999.0,33,-99.99,,,-99.99,823.000000,,2013-07-09 17:22:00,
2013-07-09 11:35:00,79.0,47.0,30.02,NE,35,6.0,-999.0,33,-99.99,,,-99.99,849.000000,,2013-07-09 17:35:00,
2013-07-09 11:45:00,79.0,47.0,30.02,NE,35,6.0,-999.0,33,-99.99,,,-99.99,849.000000,,2013-07-09 17:45:00,
2013-07-09 11:53:00,80.0,47.0,30.02,NE,42,6.0,-999.0,31,-99.99,,,-99.99,874.000000,,2013-07-09 17:53:00,
2013-07-09 12:01:00,81.0,46.0,30.01,NNE,30,6.0,-999.0,29,-99.99,,,-99.99,898.000000,,2013-07-09 18:01:00,
2013-07-09 12:11:00,81.0,46.0,30.01,NNE,30,6.0,-999.0,29,-99.99,,,-99.99,898.000000,,2013-07-09 18:11:00,
2013-07-09 12:22:00,82.0,45.0,30.01,ENE,63,6.0,-999.0,27,-99.99,,,-99.99,912.000000,,2013-07-09 18:22:00,
2013-07-09 12:42:00,84.0,43.0,30.00,North,5,4.0,-999.0,24,-99.99,,,-99.99,928.000000,,2013-07-09 18:42:00,
2013-07-09 12:52:00,85.0,43.0,30.00,NW,315,3.0,-999.0,23,-99.99,,,-99.99,942.000000,,2013-07-09 18:52:00,
2013-07-09 13:01:00,85.0,39.0,29.99,East,100,2.0,-999.0,20,-99.99,,,-99.99,953.000000,,2013-07-09 19:01:00,
2013-07-09 13:11:00,85.0,39.0,29.99,East,100,2.0,-999.0,20,-99.99,,,-99.99,953.000000,,2013-07-09 19:11:00,
2013-07-09 13:42:00,87.0,35.0,29.98,NW,323,2.0,-999.0,16,-99.99,,,-99.99,962.000000,,2013-07-09 19:42:00,
2013-07-09 14:01:00,89.0,35.0,29.98,North,350,2.0,-999.0,15,-99.99,,,-99.99,960.000000,,2013-07-09 20:01:00,
2013-07-09 14:21:00,89.0,34.0,29.97,North,355,3.0,-999.0,14,-99.99,,,-99.99,944.000000,,2013-07-09 20:21:00,
2013-07-09 14:32:00,89.0,34.0,29.97,North,355,3.0,-999.0,14,-99.99,,,-99.99,944.000000,,2013-07-09 20:32:00,
2013-07-09 14:42:00,89.0,32.0,29.97,NNE,21,3.0,-999.0,13,-99.99,,,-99.99,935.000000,,2013-07-09 20:42:00,
2013-07-09 14:52:00,90.0,34.0,29.96,NE,40,2.0,-999.0,14,-99.99,,,-99.99,919.000000,,2013-07-09 20:52:00,
2013-07-09 15:01:00,90.0,34.0,29.96,NE,40,2.0,-999.0,14,-99.99,,,-99.99,919.000000,,2013-07-09 21:01:00,
2013-07-09 15:11:00,91.0,37.0,29.96,North,360,4.0,-999.0,15,-99.99,,,-99.99,898.000000,,2013-07-09 21:11:00,
2013-07-09 15:22:00,91.0,35.0,29.96,NNE,13,2.0,-999.0,14,-99.99,,,-99.99,891.000000,,2013-07-09 21:22:00,
2013-07-09 15:32:00,91.0,35.0,29.96,NNE,13,2.0,-999.0,14,-99.99,,,-99.99,891.000000,,2013-07-09 21:32:00,
2013-07-09 15:42:00,91.0,35.0,29.95,NNW,331,4.0,-999.0,14,-99.99,,,-99.99,872.000000,,2013-07-09 21:42:00,
2013-07-09 15:52:00,92.0,34.0,29.95,NNW,328,3.0,-999.0,13,-99.99,,,-99.99,193.000000,,2013-07-09 21:52:00,
2013-07-09 16:01:00,92.0,34.0,29.95,NNW,328,3.0,-999.0,13,-99.99,,,-99.99,193.000000,,2013-07-09 22:01:00,
2013-07-09 16:11:00,92.0,34.0,29.95,NNE,30,5.0,-999.0,13,-99.99,,,-99.99,817.000000,,2013-07-09 22:11:00,
2013-07-09 16:22:00,91.0,40.0,29.95,North,11,5.0,-999.0,17,-99.99,,,-99.99,773.000000,,2013-07-09 22:22:00,
2013-07-09 16:33:00,91.0,40.0,29.95,North,11,5.0,-999.0,17,-99.99,,,-99.99,773.000000,,2013-07-09 22:33:00,
2013-07-09 16:42:00,90.0,38.0,29.95,NE,46,6.0,-999.0,16,-99.99,,,-99.99,712.000000,,2013-07-09 22:42:00,
2013-07-09 16:53:00,90.0,39.0,29.95,NE,55,3.0,-999.0,17,-99.99,,,-99.99,693.000000,,2013-07-09 22:53:00,
2013-07-09 17:02:00,90.0,39.0,29.95,NE,55,3.0,-999.0,17,-99.99,,,-99.99,693.000000,,2013-07-09 23:02:00,
2013-07-09 17:11:00,91.0,35.0,29.95,NNW,340,3.0,-999.0,14,-99.99,,,-99.99,663.000000,,2013-07-09 23:11:00,
2013-07-09 17:22:00,90.0,38.0,29.95,North,11,4.0,-999.0,16,-99.99,,,-99.99,645.000000,,2013-07-09 23:22:00,
2013-07-09 17:33:00,90.0,38.0,29.95,North,11,4.0,-999.0,16,-99.99,,,-99.99,645.000000,,2013-07-09 23:33:00,
2013-07-09 17:43:00,90.0,38.0,29.94,NW,318,2.0,-999.0,16,-99.99,,,-99.99,594.000000,,2013-07-09 23:43:00,
2013-07-09 17:52:00,91.0,35.0,29.94,NNE,13,2.0,-999.0,14,-99.99,,,-99.99,540.000000,,2013-07-09 23:52:00,
2013-07-09 18:01:00,91.0,35.0,29.94,NNE,13,2.0,-999.0,14,-99.99,,,-99.99,540.000000,,2013-07-10 00:01:00,
2013-07-09 18:11:00,91.0,35.0,29.93,ENE,61,2.0,-999.0,14,-99.99,,,-99.99,399.000000,,2013-07-10 00:11:00,
2013-07-09 18:22:00,90.0,36.0,29.93,NW,322,1.0,-999.0,15,-99.99,,,-99.99,471.000000,,2013-07-10 00:22:00,
2013-07-09 18:33:00,90.0,36.0,29.93,NW,322,1.0,-999.0,15,-99.99,,,-99.99,471.000000,,2013-07-10 00:33:00,
2013-07-09 18:42:00,90.0,33.0,29.93,NE,46,1.0,-999.0,13,-99.99,,,-99.99,388.000000,,2013-07-10 00:42:00,
2013-07-09 18:52:00,90.0,36.0,29.92,NNW,342,1.0,-999.0,15,-99.99,,,-99.99,338.000000,,2013-07-10 00:52:00,
2013-07-09 19:01:00,90.0,36.0,29.92,NNW,342,1.0,-999.0,15,-99.99,,,-99.99,338.000000,,2013-07-10 01:01:00,
2013-07-09 19:11:00,90.0,39.0,29.92,NNE,15,2.0,-999.0,17,-99.99,,,-99.99,288.000000,,2013-07-10 01:11:00,
2013-07-09 19:22:00,90.0,39.0,29.92,NNE,15,2.0,-999.0,17,-99.99,,,-99.99,288.000000,,2013-07-10 01:22:00,
2013-07-09 19:33:00,90.0,39.0,29.92,NNE,15,2.0,-999.0,17,-99.99,,,-99.99,288.000000,,2013-07-10 01:33:00,
2013-07-09 19:43:00,87.0,40.0,29.93,NNE,22,4.0,-999.0,19,-99.99,,,-99.99,44.000000,,2013-07-10 01:43:00,
2013-07-09 19:52:00,86.0,40.0,29.93,NNE,29,3.0,-999.0,20,-99.99,,,-99.99,62.000000,,2013-07-10 01:52:00,
2013-07-09 20:02:00,86.0,40.0,29.93,NNE,29,3.0,-999.0,20,-99.99,,,-99.99,62.000000,,2013-07-10 02:02:00,
2013-07-09 20:11:00,85.0,44.0,29.93,NW,309,3.0,-999.0,24,-99.99,,,-99.99,28.000000,,2013-07-10 02:11:00,
2013-07-09 20:22:00,82.0,45.0,29.93,NNE,30,4.0,-999.0,27,-99.99,,,-99.99,21.000000,,2013-07-10 02:22:00,
2013-07-09 20:34:00,82.0,45.0,29.93,NNE,30,4.0,-999.0,27,-99.99,,,-99.99,21.000000,,2013-07-10 02:34:00,
2013-07-09 20:43:00,80.0,43.0,29.93,North,360,5.0,-999.0,27,-99.99,,,-99.99,18.000000,,2013-07-10 02:43:00,
2013-07-09 20:53:00,79.0,43.0,29.94,NE,36,5.0,-999.0,28,-99.99,,,-99.99,11.000000,,2013-07-10 02:53:00,
2013-07-09 21:01:00,79.0,43.0,29.94,NE,36,5.0,-999.0,28,-99.99,,,-99.99,11.000000,,2013-07-10 03:01:00,
2013-07-09 21:11:00,77.0,44.0,29.94,NE,44,5.0,-999.0,31,-99.99,,,-99.99,5.000000,,2013-07-10 03:11:00,
2013-07-09 21:22:00,76.0,43.0,29.95,NNE,33,5.0,-999.0,31,-99.99,,,-99.99,0.000000,,2013-07-10 03:22:00,
2013-07-09 21:32:00,76.0,43.0,29.95,NNE,33,5.0,-999.0,31,-99.99,,,-99.99,0.000000,,2013-07-10 03:32:00,
2013-07-09 21:43:00,76.0,42.0,29.96,NNE,32,9.0,-999.0,30,-99.99,,,-99.99,0.000000,,2013-07-10 03:43:00,
2013-07-09 21:52:00,74.0,43.0,29.97,NE,38,6.0,-999.0,33,-99.99,,,-99.99,0.000000,,2013-07-10 03:52:00,
2013-07-09 22:01:00,74.0,43.0,29.97,NE,38,6.0,-999.0,33,-99.99,,,-99.99,0.000000,,2013-07-10 04:01:00,
2013-07-09 22:11:00,77.0,46.0,29.98,ENE,78,11.0,-999.0,33,-99.99,,,-99.99,0.000000,,2013-07-10 04:11:00,
2013-07-09 22:22:00,77.0,46.0,29.98,ENE,78,11.0,-999.0,33,-99.99,,,-99.99,0.000000,,2013-07-10 04:22:00,
2013-07-09 22:32:00,77.0,46.0,29.98,ENE,76,13.0,-999.0,34,-99.99,,,-99.99,0.000000,,2013-07-10 04:32:00,
2013-07-09 22:43:00,76.0,46.0,29.98,East,85,11.0,-999.0,35,-99.99,,,-99.99,0.000000,,2013-07-10 04:43:00,
2013-07-09 22:52:00,75.0,46.0,29.99,ENE,69,9.0,-999.0,36,-99.99,,,-99.99,0.000000,,2013-07-10 04:52:00,
2013-07-09 23:02:00,75.0,46.0,29.99,ENE,69,9.0,-999.0,36,-99.99,,,-99.99,0.000000,,2013-07-10 05:02:00,
2013-07-09 23:11:00,75.0,47.0,30.00,ENE,69,13.0,-999.0,37,-99.99,,,-99.99,0.000000,,2013-07-10 05:11:00,
2013-07-09 23:22:00,75.0,47.0,30.00,ENE,69,13.0,-999.0,37,-99.99,,,-99.99,0.000000,,2013-07-10 05:22:00,
2013-07-09 23:32:00,75.0,47.0,30.00,ENE,69,13.0,-999.0,37,-99.99,,,-99.99,0.000000,,2013-07-10 05:32:00,
2013-07-09 23:42:00,73.0,47.0,30.01,ENE,67,10.0,-999.0,40,-99.99,,,-99.99,0.000000,,2013-07-10 05:42:00,
2013-07-09 23:52:00,72.0,48.0,30.01,NE,47,13.0,-999.0,42,-99.99,,,-99.99,0.000000,,2013-07-10 05:52:00,